Regional Weather Roundup
Issued by NWS

Home | Current Version | Previous Version | Graphics & Text | Print | Product List | Glossary On
Versions: 1 2 3 4 5 6 7 8 9 10 11 12 13 14 15 16 17 18 19 20 21 22 23 24 25 26 27 28 29 30 31 32 33 34 35 36 37 38 39 40 41 42 43 44 45 46 47 48 49 50
000
ASUS45 KSLC 301110
RWRUT

UTAH REGIONAL WEATHER ROUNDUP
NATIONAL WEATHER SERVICE SALT LAKE CITY UT
500 AM MDT THU MAR 30 2017

UTZ001>011-023>025-301200-

NORTHERN UTAH

CITY           SKY/WX    TMP DP  RH WIND       PRES   REMARKS
BRIGHAM CITY   CLOUDY    48  38  70 N5        29.88F
HILL AFB       CLOUDY    48  34  58 W7        29.88F
LOGAN          CLOUDY    46  42  86 E9        29.88S
OGDEN          CLOUDY    48  35  60 W3        29.88S
SALT LAKE CITY CLOUDY    51  35  54 SE9       29.85F
TOOELE VALLEY  CLOUDY    50  36  57 E8        29.86F
WENDOVER       MOCLDY    46  38  73 SE9       29.85F
HEBER CITY     CLOUDY    41  32  70 CALM      29.91F
WEST JORDAN    CLOUDY    52  43  71 S15       29.89F

$$

UTZ011>015-024>027-301200-

CENTRAL/NORTHEAST UTAH

CITY           SKY/WX    TMP DP  RH WIND       PRES   REMARKS
PROVO AIRPORT  CLOUDY    48  35  60 SE14      29.92F
MOAB/CANYONLAN PTCLDY    44  23  43 CALM      29.92F
DELTA          PTCLDY    37  36  93 E6        29.92F WCI  33
PRICE          MOCLDY    41  34  76 N3        29.94F
ROOSEVELT      CLOUDY    45  34  65 CALM      29.95F
VERNAL         CLOUDY    41  33  73 NE3       29.92F

$$

UTZ013>016-019>022-027-301200-

SOUTHERN UTAH

CITY           SKY/WX    TMP DP  RH WIND       PRES   REMARKS
BRYCE CANYON   PTCLDY    30  23  75 W8        30.05F WCI  22
CEDAR CITY     MOCLDY    38  30  73 S7        29.99F WCI  33
MILFORD        PTCLDY    42  31  64 S17       29.93F
ST GEORGE      CLOUDY    51  29  42 CALM      29.96F
HANKSVILLE     PTCLDY    39  23  52 CALM      29.95F
BLANDING       PTCLDY    36  23  59 NE8       30.06F WCI  30

$$

REGIONAL REPORTS     COLORADO/ARIZONA

CITY           SKY/WX    TMP DP  RH WIND       PRES   REMARKS
CRAIG, CO      CLOUDY    35  29  78 CALM      29.97F
GRAND JUNCTION CLOUDY    40  30  67 SE14      29.96F WCI  32
RIFLE, CO      CLOUDY    31  27  85 S5        30.00F WCI  26
MONTROSE, CO   CLOUDY    36  27  69 SE8       30.03F WCI  30
CORTEZ, CO     CLOUDY    27  23  85 E5        30.03F WCI  22
COLORADO CITY    N/A     34  30  86 E5        30.03F WCI  30
PAGE, AZ       CLEAR     51  26  37 CALM      29.96F
GRAND CANYON   CLEAR     27  23  85 CALM      30.08F
KINGMAN, AZ    CLEAR     43  16  33 SE5       29.96F
FLAGSTAFF, AZ  CLEAR     28  20  71 CALM      30.08F

$$

REGIONAL REPORTS    NEVADA/IDAHO/WYOMING

CITY           SKY/WX    TMP DP  RH WIND       PRES   REMARKS
LAS VEGAS, NV  MOCLDY    58  29  33 CALM      29.88F
ELY, NY        MOCLDY    36  30  79 S15       29.94F WCI  27
ELKO, NV       RAIN      44  38  79 W18G28    29.91R
POCATELLO, ID  CLOUDY    45  42  89 S12       29.83F
BURLEY, ID     MOCLDY    44  43  96 SW8       29.82F
FORT BRIDGER,  CLOUDY    40  35  82 SW5       29.94F
EVANSTON, WY   CLOUDY    37  28  70 SW12      29.90F WCI  29
ROCK SPRINGS,  CLOUDY    40  29  64 SW8       29.91F WCI  34
KEMMERER, WY   FOG       32  32 100 S3        29.92F VSB 3/4

$$



USA.gov is the U.S. government's official web portal to all federal, state and local government web resources and services.